Regional Weather Roundup
Issued by NWS

Home | Current Version | Previous Version | Graphics & Text | Print | Product List | Glossary On
Versions: 1 2 3 4 5 6 7 8 9 10 11 12 13 14 15 16 17 18 19 20 21 22 23 24 25 26 27 28 29 30 31 32 33 34 35 36 37 38 39 40 41 42 43 44 45 46 47 48 49 50
000
ASUS43 KDMX 271507
RWRIA

WEATHER ROUNDUP FOR IOWA
NATIONAL WEATHER SERVICE DES MOINES IA
1000 AM CDT WED AUG 27 2014

NOTE: "FAIR" INDICATES FEW OR NO CLOUDS BELOW 12,000 FEET WITH NO
SIGNIFICANT WEATHER AND/OR OBSTRUCTIONS TO VISIBILITY.

* - THESE STATIONS ARE NOT NWS STATIONS...THUS NOT UNDER NWS
QUALITY CONTROL.  THEY ALSO DO NOT REPORT WEATHER SUCH
AS PRECIPITATION OR FOG.

IAZ001>003-012>014-020>022-031>034-043>046-271600-
   NORTHWEST IOWA

CITY           SKY/WX    TMP DP  RH WIND       PRES   REMARKS
CARROLL *      PTSUNNY   68  64  88 E5        30.19R
CHEROKEE *     CLOUDY    61  61 100 CALM      30.20R
DENISON *      CLOUDY    66  66 100 NE6       30.16R
LE MARS *      PTSUNNY   63  59  88 CALM      30.21R
ORANGE CITY *  PTSUNNY   64  57  77 E5        30.21R
SHELDON *      SUNNY     61  59  94 VRB3      30.20R
SIOUX CITY     RAIN      64  63  96 CALM      30.19R FOG
SPENCER        CLOUDY    64  58  80 E6        30.20R
STORM LAKE *   SUNNY     63  63 100 E7        30.20R
$$

IAZ055>058-069>071-079>083-090>094-271600-
   SOUTHWEST IOWA

CITY           SKY/WX    TMP DP  RH WIND       PRES   REMARKS
ATLANTIC *     PTSUNNY   68  66  94 E5        30.15S
AUDUBON *      MOSUNNY   70  66  88 SE6       30.19R
CLARINDA *     LGT RAIN  68  68 100 S8        30.15R
COUNCIL BLFS * CLOUDY    68  68 100 W7        30.16R
CRESTON *        N/A     70  68  94 SE7       30.17R
HARLAN  *      PTSUNNY   68  66  94 SE6       30.19R
LAMONI         CLOUDY    69  68  96 S5        30.14F
RED OAK *      CLOUDY    70  68  94 SE8       30.14R
SHENANDOAH *   HVY RAIN  70  68  94 SE9       30.16R VSB 1/4
$$

IAZ047>049-059>061-072>074-084-271600-
   CENTRAL IOWA

CITY           SKY/WX    TMP DP  RH WIND       PRES   REMARKS
AMES           CLOUDY    69  63  81 E7        30.17S
ANKENY *       MOSUNNY   70  66  88 VRB5      30.15F
CHARITON *     LGT RAIN  66  66 100 SE10      30.13F
DES MOINES     CLOUDY    71  63  75 SE7       30.15S
GRINNELL*      CLOUDY    68  63  83 E6        30.18R
KNOXVILLE *    SUNNY     66  64  94 E6        30.15S
MARSHALLTOWN   MOSUNNY   69  62  78 E9        30.17R
PELLA *        CLOUDY    68  64  88 SE3       30.18S
PERRY *        CLOUDY    70  64  83 SE7       30.17R
$$

IAZ004>006-015-016-023>025-035-036-271600-
   NORTH CENTRAL IOWA

CITY           SKY/WX    TMP DP  RH WIND       PRES   REMARKS
ALGONA *       MOSUNNY   66  57  72 SE8       30.21R
CLARION *      SUNNY     68  59  73 E7G14     30.20R
ESTHERVILLE    CLOUDY    64  58  80 E5        30.21R
FORT DODGE *   PTSUNNY   68  61  77 SE5       30.20R
MASON CITY     CLOUDY    67  56  67 SE8       30.23R
FOREST CITY *  CLOUDY    66  59  77 E6        30.21R
IOWA FALLS *     N/A     70  57  64 E9        30.20R
$$

IAZ007>011-017>019-026>030-037>042-050>054-066-271600-
   NORTHEAST IOWA

CITY           SKY/WX    TMP DP  RH WIND       PRES   REMARKS
CEDAR RAPIDS   CLOUDY    69  62  78 E8        30.17R
CHARLES CITY * PTSUNNY   68  57  68 SE5       30.22R
CLINTON *      PTSUNNY   70  61  73 E7        30.19R
DECORAH *      SUNNY     68  59  73 VRB5      30.20R
DUBUQUE        MOSUNNY   69  59  70 N6        30.19R
MONTICELLO *   SUNNY     72  61  68 E5        30.17S
OELWEIN *      SUNNY     70  59  68 SE7       30.21R
WATERLOO       MOSUNNY   71  57  61 E7        30.18R
$$

IAZ064-065-067-068-078-271600-
   EAST CENTRAL IOWA

CITY           SKY/WX    TMP DP  RH WIND       PRES   REMARKS
DAVENPORT      PTSUNNY   71  61  70 E7        30.17R
IOWA CITY      CLOUDY    69  61  75 E7        30.17S
MT. PLEASANT * CLOUDY    75  64  69 E5        30.15R
MUSCATINE *    SUNNY     73  63  68 NE8       30.15S
QUAD CITIES    PTSUNNY   74  61  63 E7        30.15R
$$

IAZ062-063-075>077-085>089-095>099-271600-
   SOUTHEAST IOWA

CITY           SKY/WX    TMP DP  RH WIND       PRES   REMARKS
BURLINGTON     PTSUNNY   74  68  81 E5        30.13F
FAIRFIELD *    MOSUNNY   70  64  83 CALM      30.17R
FORT MADISON * SUNNY     75  70  83 NE5       30.14S
KEOKUK *       SUNNY     73  68  83 NE8       30.12S
OSKALOOSA *    PTSUNNY   66  64  94 CALM      30.19R
CENTERVILLE *  LGT RAIN  66  66 100 E5        30.18S
OTTUMWA        LGT RAIN  67  65  93 SW3       30.18R FOG
WASHINGTON *   SUNNY     70  66  88 NE7       30.15S
$$

ABBREVIATIONS USED IN REMARKS
   TC - TEMPERATURES IN CELSIUS
  WCI - WIND CHILL INDEX
   HX - HEAT INDEX
  VSB - VISIBILITY
$$



USA.gov is the U.S. government's official web portal to all federal, state and local government web resources and services.